Wind_Speed
25 26 27 29 29 29 29 28 27 25 23 21 20 19 19 20 21 21 19 19 18 18 19 19 20 20 20 19 18 17 16 15 14 14 13 12 12 12 13 13 14 14 15 15 16 17 18 19 19
25 25 27 28 29 28 28 29 29 28 25 23 21 20 20 21 20 20 21 20 20 19 19 19 20 20 20 20 19 18 17 16 16 15 14 14 13 13 14 14 14 15 16 16 17 18 19 20 20
26 27 28 28 27 24 26 29 31 30 27 25 23 22 21 21 20 21 21 21 21 20 20 20 20 20 20 20 19 18 18 17 17 16 16 15 15 15 15 15 15 16 16 17 17 18 19 20 21
29 29 30 29 23 22 25 28 31 31 30 28 26 24 23 22 22 22 22 21 21 21 21 21 21 21 21 21 20 19 19 19 18 17 17 16 16 16 16 16 16 16 16 17 17 18 19 20 20
32 32 32 29 22 22 25 28 29 31 31 30 28 27 26 24 23 22 22 21 22 22 23 23 23 23 23 22 21 20 20 20 19 19 18 18 17 17 16 16 17 17 17 17 17 18 19 19 20
34 33 33 28 23 24 28 29 29 30 31 31 31 30 29 27 25 24 22 22 22 22 23 24 25 25 24 23 22 21 21 21 21 20 19 19 18 18 17 17 17 17 17 18 18 18 19 20 20
35 34 33 28 25 26 29 32 31 31 32 32 32 31 30 29 28 26 24 23 22 22 23 24 25 25 24 23 23 22 22 22 22 21 21 20 20 19 18 18 17 17 17 17 18 18 19 19 20
34 33 32 27 25 27 30 34 34 33 33 33 33 32 32 31 30 29 27 25 24 24 24 24 25 25 25 24 23 23 22 22 22 22 22 22 21 20 19 19 18 18 18 18 18 18 19 20 20
33 33 29 25 25 28 32 35 36 34 34 34 34 34 33 33 32 31 30 28 27 26 26 26 26 26 26 25 24 23 22 22 22 23 23 23 22 21 20 20 19 19 18 18 19 19 20 21 21
33 31 26 25 27 30 33 36 37 36 34 34 35 34 34 34 33 33 32 31 30 29 28 27 27 28 27 26 25 23 22 22 22 23 24 24 24 23 22 21 20 20 20 20 20 21 21 22 23
32 30 27 27 29 31 33 36 37 37 35 34 35 34 34 34 34 34 33 33 33 32 30 29 29 29 29 28 27 25 23 23 22 23 25 25 25 25 24 22 22 21 21 21 22 23 24 24 25
31 29 28 28 29 31 33 35 38 38 35 35 35 34 33 33 33 34 35 35 35 33 32 31 31 31 31 31 29 27 25 24 23 24 25 26 26 26 25 25 24 23 23 23 24 25 26 26 27
30 28 28 28 28 30 32 34 38 39 37 37 36 35 34 33 33 34 36 36 36 35 34 34 33 33 34 33 32 30 28 26 25 25 26 26 27 27 27 27 26 26 25 25 26 27 28 28 28
29 27 27 27 27 28 30 33 36 35 37 39 38 37 35 34 34 35 36 36 36 36 36 35 35 35 35 34 33 32 30 28 27 27 28 28 28 28 28 28 28 28 28 28 28 29 29 30 30
29 27 26 26 26 27 29 31 32 32 38 39 39 38 37 36 36 36 36 36 37 38 37 37 36 36 35 35 34 34 32 31 30 30 29 30 30 29 29 29 30 30 30 30 30 31 31 32 32
29 28 26 26 26 27 29 28 29 32 36 38 40 40 40 39 38 38 38 38 38 39 39 38 38 37 36 36 35 34 34 33 32 32 31 31 32 31 30 31 31 31 31 31 32 33 33 34 34
29 28 27 27 27 27 28 28 29 32 35 37 39 41 41 41 40 39 39 39 39 40 41 40 39 38 38 37 36 35 34 34 34 34 33 33 33 33 32 32 32 32 32 32 33 34 34 35 36
30 29 29 28 28 29 30 30 30 33 35 37 39 41 42 41 40 40 41 41 41 42 42 42 41 40 39 38 37 36 35 35 35 35 35 34 34 34 34 33 33 33 33 34 35 35 36 37 39
30 30 30 30 31 33 34 34 33 34 36 38 40 42 43 43 42 42 43 43 43 43 43 43 43 42 41 39 38 37 36 36 36 36 35 35 35 34 34 34 34 34 35 35 36 37 38 39 41
30 31 32 33 35 37 37 38 37 38 38 40 42 43 45 45 45 45 44 44 44 44 44 44 44 43 42 41 39 38 37 36 36 36 36 35 35 35 35 35 35 36 36 37 37 38 39 41 42
30 32 34 36 38 40 42 42 41 41 41 42 44 46 47 47 48 48 47 46 45 45 45 45 44 44 43 42 41 39 38 37 36 36 36 37 36 36 36 36 37 37 38 38 39 40 41 43 43
32 34 36 39 41 42 45 49 44 44 43 44 46 49 50 50 50 50 50 48 47 46 45 45 45 44 43 42 41 40 39 37 36 36 36 37 37 37 37 37 38 38 39 39 41 42 43 44 45
34 36 38 41 43 45 46 50 47 46 45 46 48 50 52 53 53 52 52 51 50 48 47 46 45 44 43 42 41 40 38 37 37 37 37 37 37 37 38 38 38 39 40 41 42 43 45 46 47
35 37 39 41 44 47 46 49 48 46 46 47 49 51 53 55 55 55 55 54 53 52 50 48 47 45 43 42 41 39 38 38 37 37 37 37 37 37 38 38 39 40 41 42 43 44 46 48 49
35 37 39 43 45 46 47 49 46 44 47 49 51 52 54 56 58 58 57 56 56 54 51 50 48 46 44 43 41 39 38 38 38 37 37 37 37 37 38 39 39 40 41 42 44 45 47 49 51
34 36 38 42 45 46 45 45 41 42 46 49 51 53 54 55 57 58 58 57 57 56 54 51 49 47 45 43 41 39 38 38 38 37 37 37 37 38 39 39 40 41 42 43 45 47 50 52 53
33 35 37 40 42 43 43 41 39 40 44 47 49 50 51 52 54 56 57 57 57 56 54 52 50 48 46 43 41 40 38 38 38 38 37 37 37 38 39 40 40 41 42 44 46 49 51 53 55
33 33 34 36 38 40 39 36 34 33 37 41 44 47 48 49 51 54 56 56 55 55 54 52 50 48 46 44 42 40 38 38 38 37 37 37 38 39 39 40 40 41 43 45 48 51 53 55 57
28 29 30 33 35 38 38 30 28 29 32 35 39 41 43 44 46 50 54 55 55 54 53 52 50 47 45 43 41 39 37 37 37 37 37 37 37 38 39 39 40 42 44 47 50 53 55 57 59
25 26 29 32 33 35 36 26 25 27 29 31 33 34 35 36 39 44 49 52 52 52 51 50 48 46 43 41 39 38 37 36 36 36 36 37 37 38 38 39 40 43 46 49 52 54 56 58 61
Wind_Direction
241 242 244 245 245 245 245 246 248 249 250 251 252 251 251 250 250 251 248 245 246 248 250 251 252 252 252 252 253 255 259 262 264 264 261 257 256 255 255 255 256 259 262 265 267 270 272 273 274
242 244 246 246 246 246 246 246 247 247 248 248 248 248 248 248 248 249 248 248 248 248 249 251 252 252 252 252 253 255 259 261 264 264 262 259 256 255 254 255 255 258 261 264 266 268 270 272 274
243 245 247 248 249 248 247 246 246 246 245 245 245 246 247 248 248 248 248 249 251 252 253 254 254 254 253 252 253 255 258 261 262 263 262 261 258 256 255 256 256 258 261 264 266 268 270 272 274
244 246 248 250 250 248 247 246 246 246 245 244 244 244 244 245 247 248 248 251 253 256 259 260 259 257 255 253 253 255 258 260 262 263 262 261 259 258 257 257 258 259 262 264 266 269 271 274 275
244 246 249 250 248 246 248 247 247 246 245 244 242 242 242 243 245 247 249 252 255 259 262 263 263 261 259 255 254 256 258 260 261 261 260 259 259 260 260 260 261 263 264 266 269 271 274 276 278
245 247 250 251 245 242 245 247 246 246 245 243 241 241 241 243 244 245 247 251 254 259 262 264 264 263 261 258 257 257 257 258 259 260 259 258 259 260 261 262 263 265 267 269 271 273 275 278 279
246 248 250 248 241 239 243 247 247 246 245 244 242 241 242 242 243 244 246 248 252 257 261 263 264 263 261 259 258 258 258 257 258 259 259 258 258 259 261 262 263 265 268 270 273 275 277 280 281
246 247 248 246 241 238 241 246 247 245 245 246 245 243 242 242 243 244 245 247 250 254 257 259 260 260 259 258 258 259 259 258 258 258 258 258 257 257 259 260 263 265 268 270 274 277 279 282 284
244 246 246 243 237 234 236 242 245 245 245 246 247 245 245 244 243 244 245 246 249 251 253 255 256 255 255 256 256 257 259 259 259 259 259 258 257 256 257 260 263 266 268 270 275 278 281 283 285
244 246 244 238 234 232 233 239 244 246 246 247 248 248 247 246 245 245 245 246 248 249 250 252 253 252 253 253 254 255 258 260 261 261 260 259 258 257 257 260 263 265 267 271 276 279 283 285 287
242 244 241 237 235 234 234 239 244 247 247 248 249 250 249 248 247 246 246 246 247 248 249 250 250 250 250 251 252 254 256 260 263 263 261 260 259 257 257 259 261 264 267 272 277 281 284 286 287
240 241 240 238 237 236 237 239 244 248 248 249 249 250 250 250 249 247 245 246 248 249 250 249 249 249 249 250 251 253 255 259 263 264 263 262 260 259 258 258 261 264 267 272 278 281 284 287 288
238 239 240 239 239 238 239 240 244 247 248 250 250 250 251 251 250 249 248 247 248 250 251 250 249 250 250 250 251 253 255 258 262 263 263 262 261 260 259 259 261 263 267 272 277 281 284 286 288
236 238 239 240 240 240 241 241 245 246 248 250 251 251 251 250 250 250 249 248 247 248 249 250 251 251 252 253 253 254 255 257 261 263 263 261 261 260 260 260 262 264 268 271 275 279 283 285 287
234 237 239 241 242 242 244 245 247 244 246 250 251 252 251 250 249 248 248 247 246 246 247 249 250 252 253 254 254 255 255 256 259 262 263 262 260 260 260 261 262 265 268 271 275 278 282 285 287
233 237 239 241 244 245 248 249 247 247 248 251 253 253 253 251 249 247 246 245 244 245 246 248 249 251 252 253 254 255 256 257 259 261 262 261 260 260 260 261 263 265 268 272 275 279 282 285 287
232 237 240 243 247 250 254 255 249 251 252 252 253 255 254 253 250 248 245 244 243 243 244 246 248 249 251 253 254 255 256 257 258 260 260 260 260 260 260 262 263 266 269 272 276 279 282 285 287
233 238 243 247 251 253 256 259 256 254 256 257 256 256 256 255 252 249 246 243 242 242 242 244 246 248 250 252 254 255 256 257 257 258 258 259 260 261 261 263 264 266 269 273 276 280 283 285 288
238 243 247 251 254 256 259 262 262 261 260 259 258 257 256 255 252 250 247 243 242 241 241 242 244 246 248 250 252 253 255 256 257 257 258 260 261 262 263 264 265 267 271 273 276 280 283 286 288
244 248 252 255 258 260 262 264 266 265 264 262 258 256 255 253 251 249 248 245 242 241 241 241 243 245 247 249 251 253 254 256 256 257 259 261 261 263 264 264 267 270 273 276 278 281 284 286 288
250 255 258 261 263 266 267 265 266 266 265 264 261 257 253 251 249 248 247 245 242 240 240 241 242 243 246 248 250 252 254 255 256 257 259 260 262 263 264 266 269 272 275 278 280 283 285 288 289
256 260 264 266 268 269 270 271 267 268 266 263 260 258 254 250 248 246 244 243 241 239 238 239 240 241 244 247 249 251 253 255 256 257 258 261 262 264 266 268 270 273 276 279 282 285 287 289 290
262 265 268 270 272 273 273 274 271 271 268 263 259 256 254 251 248 245 242 241 239 237 236 236 238 239 242 245 248 251 254 256 257 257 259 261 263 264 267 269 272 275 278 281 284 286 288 290 292
266 269 272 274 275 276 277 277 275 274 272 267 261 257 253 251 248 245 241 239 237 236 234 234 235 237 240 243 247 250 253 255 256 258 259 261 263 265 267 270 273 276 280 283 285 287 289 291 293
269 273 276 277 277 278 278 278 279 276 273 268 263 259 255 251 249 245 242 238 236 235 234 233 234 236 239 242 245 248 252 254 256 258 259 261 263 266 268 272 275 278 281 284 286 289 291 292 295
271 275 278 280 282 283 282 281 282 278 274 271 266 262 258 253 248 244 241 237 234 233 232 232 233 234 237 240 244 247 250 254 256 257 259 261 263 266 270 273 276 279 282 286 288 290 292 294 296
274 277 279 282 284 285 286 287 285 278 274 271 267 263 259 253 247 242 238 235 232 230 229 229 230 231 234 238 242 245 249 252 255 257 259 262 265 268 271 274 278 281 284 287 289 292 294 297 298
275 279 282 283 286 289 291 293 291 281 274 270 269 265 260 254 247 241 235 232 228 226 225 225 226 228 231 235 239 243 247 251 254 257 259 262 266 270 273 276 279 283 286 289 291 294 297 298 300
276 280 282 283 287 292 296 296 294 286 280 277 274 269 262 254 246 238 230 226 223 222 221 221 223 225 228 232 237 242 247 251 254 257 260 264 268 272 275 278 282 285 288 291 294 297 298 300 301
277 281 282 286 290 294 297 300 298 290 285 280 276 272 264 253 242 232 223 217 217 216 216 217 219 222 226 231 236 241 246 250 254 258 262 267 271 274 277 281 284 288 291 294 296 298 300 301 302
Height
5821 5823 5825 5827 5830 5831 5833 5834 5835 5837 5839 5840 5841 5842 5843 5845 5847 5850 5849 5847 5848 5848 5848 5849 5849 5850 5851 5851 5852 5852 5853 5853 5852 5852 5852 5852 5851 5851 5850 5850 5850 5849 5849 5849 5849 5848 5848 5848 5848
5817 5819 5820 5822 5824 5827 5829 5830 5831 5832 5834 5836 5837 5838 5839 5840 5842 5843 5843 5843 5844 5844 5845 5845 5846 5846 5847 5848 5848 5848 5849 5849 5849 5849 5849 5849 5848 5848 5848 5847 5847 5847 5846 5846 5846 5845 5845 5845 5845
5812 5813 5815 5816 5819 5823 5824 5824 5825 5827 5829 5831 5833 5834 5835 5836 5837 5838 5839 5840 5840 5841 5841 5842 5842 5843 5843 5844 5844 5845 5845 5845 5846 5846 5846 5845 5845 5845 5845 5845 5844 5844 5843 5843 5843 5843 5842 5842 5841
5807 5808 5810 5812 5816 5818 5818 5819 5820 5822 5825 5826 5828 5829 5830 5832 5833 5834 5835 5836 5837 5837 5837 5838 5838 5839 5839 5840 5840 5841 5841 5842 5842 5842 5842 5842 5842 5842 5842 5841 5841 5841 5840 5840 5840 5839 5839 5838 5838
5801 5802 5804 5807 5812 5813 5812 5813 5815 5816 5819 5821 5823 5825 5826 5827 5829 5830 5831 5832 5833 5833 5833 5834 5834 5835 5835 5836 5836 5837 5837 5838 5838 5838 5838 5838 5838 5838 5838 5838 5837 5837 5837 5836 5836 5836 5835 5835 5834
5795 5797 5798 5802 5807 5808 5807 5807 5809 5811 5813 5815 5818 5819 5821 5823 5824 5825 5827 5828 5829 5829 5829 5830 5830 5830 5831 5832 5832 5833 5833 5833 5834 5834 5834 5835 5834 5834 5834 5834 5834 5834 5833 5833 5832 5832 5831 5831 5830
5789 5791 5792 5797 5801 5802 5802 5801 5803 5805 5807 5809 5812 5814 5816 5818 5819 5821 5822 5823 5824 5825 5825 5825 5826 5826 5827 5827 5828 5829 5829 5829 5830 5830 5831 5831 5831 5831 5830 5830 5830 5830 5830 5829 5829 5828 5827 5826 5825
5782 5784 5786 5791 5795 5797 5796 5795 5797 5799 5801 5803 5806 5809 5811 5813 5814 5816 5817 5819 5820 5820 5821 5821 5821 5822 5822 5823 5824 5824 5825 5825 5826 5826 5826 5827 5827 5827 5827 5826 5826 5826 5826 5825 5824 5824 5823 5822 5820
5775 5778 5781 5785 5788 5789 5789 5789 5790 5793 5795 5797 5800 5803 5805 5807 5809 5811 5812 5814 5815 5815 5816 5816 5817 5817 5818 5819 5819 5820 5820 5821 5821 5821 5822 5822 5822 5822 5822 5822 5822 5822 5821 5821 5820 5819 5818 5817 5815
5768 5772 5777 5779 5780 5782 5782 5782 5784 5786 5789 5792 5794 5796 5799 5801 5803 5805 5807 5808 5809 5810 5811 5811 5812 5812 5813 5814 5815 5815 5816 5816 5816 5817 5817 5817 5817 5818 5818 5818 5818 5817 5817 5816 5815 5814 5813 5811 5810
5762 5766 5769 5771 5773 5774 5776 5776 5777 5780 5783 5786 5787 5789 5792 5795 5797 5799 5801 5802 5803 5804 5805 5806 5807 5807 5808 5809 5810 5811 5811 5811 5812 5812 5812 5812 5812 5813 5813 5813 5813 5812 5812 5811 5810 5809 5807 5806 5804
5756 5759 5761 5763 5765 5768 5769 5771 5771 5773 5777 5779 5780 5783 5785 5788 5790 5792 5794 5795 5797 5798 5800 5801 5802 5802 5803 5804 5805 5806 5806 5807 5807 5807 5807 5807 5807 5807 5808 5808 5807 5807 5806 5806 5804 5803 5802 5800 5798
5749 5752 5754 5756 5758 5761 5763 5764 5764 5766 5770 5771 5773 5776 5778 5781 5783 5785 5787 5789 5791 5792 5793 5795 5796 5797 5798 5799 5800 5801 5801 5802 5802 5802 5801 5801 5802 5802 5802 5802 5802 5801 5801 5800 5799 5797 5796 5794 5792
5742 5745 5747 5749 5751 5753 5755 5757 5757 5762 5763 5763 5765 5768 5771 5774 5776 5778 5780 5782 5784 5785 5786 5788 5789 5791 5792 5793 5795 5795 5796 5797 5797 5796 5796 5796 5796 5796 5796 5796 5796 5795 5795 5794 5793 5791 5790 5788 5786
5735 5738 5741 5743 5744 5747 5748 5750 5752 5756 5754 5755 5757 5760 5763 5765 5768 5770 5773 5775 5776 5778 5779 5781 5782 5784 5786 5787 5788 5789 5790 5791 5791 5791 5791 5790 5790 5790 5790 5790 5790 5789 5788 5787 5786 5785 5783 5781 5779
5727 5731 5734 5736 5737 5739 5743 5745 5747 5747 5747 5749 5750 5751 5754 5757 5759 5762 5765 5767 5769 5770 5772 5773 5775 5777 5779 5780 5781 5783 5784 5785 5785 5785 5784 5784 5784 5784 5784 5784 5783 5782 5782 5781 5779 5778 5776 5774 5772
5720 5724 5726 5729 5730 5732 5735 5738 5740 5739 5740 5741 5742 5743 5744 5747 5750 5753 5756 5759 5760 5762 5764 5766 5768 5770 5771 5773 5775 5776 5777 5778 5778 5778 5778 5778 5777 5777 5777 5777 5776 5776 5775 5774 5773 5771 5769 5767 5764
5714 5716 5718 5721 5723 5725 5726 5729 5732 5732 5732 5733 5734 5735 5735 5738 5741 5744 5747 5749 5752 5754 5756 5758 5760 5762 5764 5765 5767 5769 5770 5771 5771 5771 5771 5771 5771 5770 5770 5770 5769 5769 5768 5767 5765 5764 5761 5759 5756
5706 5709 5711 5713 5713 5715 5718 5720 5723 5723 5724 5725 5725 5725 5726 5728 5731 5733 5736 5739 5742 5745 5748 5750 5752 5754 5756 5758 5760 5761 5762 5763 5764 5764 5764 5764 5764 5763 5763 5763 5762 5762 5761 5760 5758 5756 5754 5751 5748
5698 5701 5702 5704 5704 5706 5709 5711 5713 5713 5714 5715 5714 5714 5716 5717 5719 5722 5725 5728 5732 5736 5739 5742 5744 5746 5748 5751 5752 5754 5755 5756 5757 5757 5757 5757 5757 5756 5756 5756 5755 5754 5753 5752 5750 5748 5746 5743 5740
5691 5692 5693 5694 5695 5696 5697 5701 5705 5704 5703 5703 5702 5702 5703 5705 5707 5710 5713 5717 5722 5726 5730 5733 5736 5738 5741 5743 5745 5747 5747 5748 5749 5750 5750 5750 5750 5749 5749 5748 5747 5746 5745 5743 5741 5739 5737 5734 5731
5683 5684 5684 5685 5685 5686 5687 5685 5695 5693 5692 5690 5688 5687 5688 5691 5694 5697 5701 5705 5710 5715 5719 5723 5726 5729 5732 5735 5737 5739 5740 5741 5742 5742 5743 5743 5742 5742 5741 5741 5739 5738 5737 5735 5733 5730 5727 5724 5721
5675 5675 5676 5675 5674 5675 5676 5672 5679 5679 5678 5676 5673 5672 5673 5676 5680 5684 5689 5693 5698 5703 5708 5712 5716 5720 5723 5726 5728 5731 5733 5734 5735 5735 5735 5735 5735 5735 5734 5733 5732 5730 5728 5726 5724 5721 5717 5714 5710
5666 5667 5666 5664 5663 5664 5665 5659 5664 5666 5662 5658 5657 5657 5658 5660 5665 5669 5674 5679 5685 5690 5696 5701 5706 5710 5714 5718 5720 5723 5725 5726 5727 5727 5728 5728 5728 5727 5726 5725 5723 5722 5719 5717 5714 5711 5707 5704 5700
5659 5658 5657 5654 5653 5654 5651 5647 5651 5651 5644 5641 5640 5641 5642 5644 5648 5654 5659 5665 5672 5678 5685 5691 5696 5701 5705 5709 5712 5715 5717 5719 5720 5720 5720 5720 5720 5719 5718 5717 5715 5713 5711 5708 5705 5701 5697 5693 5689
5650 5650 5649 5645 5642 5640 5637 5635 5639 5635 5628 5623 5623 5623 5624 5627 5631 5637 5643 5650 5658 5665 5673 5680 5686 5691 5696 5701 5704 5707 5710 5711 5712 5713 5713 5713 5712 5712 5710 5709 5707 5704 5701 5698 5695 5691 5687 5682 5677
5642 5641 5639 5636 5632 5628 5626 5624 5624 5619 5613 5608 5607 5606 5607 5609 5614 5620 5626 5635 5643 5652 5660 5668 5675 5682 5687 5692 5696 5699 5702 5704 5705 5705 5705 5705 5705 5704 5702 5700 5698 5695 5692 5689 5685 5680 5676 5671 5666
5633 5632 5630 5626 5622 5617 5615 5613 5610 5604 5599 5596 5592 5589 5590 5592 5596 5602 5610 5620 5629 5639 5648 5657 5665 5672 5678 5683 5688 5691 5694 5696 5697 5698 5698 5698 5697 5695 5694 5691 5689 5686 5682 5679 5674 5670 5665 5659 5653
5626 5625 5621 5618 5615 5610 5604 5606 5600 5594 5588 5583 5579 5574 5573 5575 5578 5584 5593 5604 5616 5627 5637 5647 5655 5663 5670 5675 5680 5684 5687 5689 5690 5690 5690 5690 5689 5687 5685 5682 5680 5676 5673 5668 5664 5659 5653 5647 5641
5619 5617 5614 5611 5608 5602 5595 5597 5592 5585 5578 5573 5568 5562 5559 5559 5562 5568 5578 5591 5604 5617 5628 5638 5647 5655 5662 5668 5673 5677 5680 5682 5683 5683 5683 5682 5680 5678 5676 5674 5671 5667 5663 5658 5653 5648 5641 5635 5628